Location: Mount Cross
(36.6390°N, 79.4878°W)
Time: 19:44:53
(UTC+00:00)

Explorer 7 - Visible Passes

Search period start: 21 March 2023 00:00
Search period end: 31 March 2023 00:00
Orbit: 478 x 657 km, 50.3° (Epoch: 21 March)

Date Brightness Start Highest point End Pass type
(mag) Time Alt. Az. Time Alt. Az. Time Alt. Az.
21 Mar 9.3 01:33:03 10° NW 01:35:35 15° NNW 01:37:09 13° N visible
21 Mar 8.4 23:50:55 10° W 23:54:59 35° NNW 23:58:50 10° NE visible
22 Mar 9.4 01:34:02 10° NW 01:36:08 13° NNW 01:37:37 12° NNE visible
22 Mar 8.8 23:51:38 10° W 23:55:22 26° NNW 23:58:56 10° NNE visible
23 Mar 9.4 01:34:56 10° NNW 01:36:42 12° N 01:38:00 11° NNE visible
23 Mar 9.1 23:52:27 10° WNW 23:55:48 21° NNW 23:59:01 10° NNE visible
24 Mar 9.4 01:35:39 10° NNW 01:37:17 12° N 01:38:19 11° NNE visible
24 Mar 9.3 23:53:20 10° WNW 23:56:16 17° NNW 23:59:06 10° NNE visible
25 Mar 9.4 01:36:07 10° NNW 01:37:51 12° N 01:38:35 12° NNE visible
25 Mar 9.3 23:54:13 10° NW 23:56:45 15° NNW 23:59:12 10° NNE visible
26 Mar 9.3 01:36:22 10° NNW 01:38:23 13° N 01:38:49 13° NNE visible
27 Mar 9.1 01:36:27 10° NNW 01:38:54 15° NNE 01:39:01 15° NNE visible
28 Mar 8.9 01:36:29 10° NNW 01:39:13 18° NNE 01:39:13 18° NNE visible
29 Mar 8.6 01:36:29 10° NNW 01:39:25 22° NNE 01:39:25 22° NNE visible
30 Mar 8.2 01:36:29 10° NW 01:39:37 28° NNE 01:39:37 28° NNE visible
